Location: Unspecified
(35.6961°N, 0.0000°E)
Time: 13:26:06
(UTC+00:00)

S-56A Canister/Altair - Pass Details

Date: 27 May 2019
Orbit: 633 x 2499 km, 38.9° (Epoch: 23 June)

Event Time Altitude Azimuth Distance (km) Brightness Sun altitude
Rises 23:34:04 0° 238° (WSW) 2,967 - -32.7°
Reaches altitude 10° 23:36:10 10° 235° (SW) 2,134 - -32.7°
Maximum altitude 23:40:55 64° 154° (SSE) 902 - -32.8°
Exits shadow 23:45:03 22° 78° (ENE) 2,003 9.6 -32.9°
Drops below altitude 10° 23:47:29 10° 74° (ENE) 2,916 10.6 -32.9°
Sets 23:50:48 0° 72° (ENE) 4,168 11.5 -32.9°
